Weather History for Falls City, NE

Change the Weather History Date:

Thursday, November 18, 2010

  Actual Average Record
Temperature  
Mean Temperature 38 °F -  
Max Temperature 44 °F 53 °F 73 °F (1976)
Min Temperature 32 °F 31 °F 8 °F (2014)
Degree Days  
Heating Degree Days 27    
Moisture  
Dew Point 32 °F    
Average Humidity 80    
Maximum Humidity 92    
Minimum Humidity 63    
Precipitation  
Precipitation 0.00 in - - ()
Sea Level Pressure  
Sea Level Pressure 30.30 in    
Wind  
Wind Speed 5 mph (South)    
Max Wind Speed 14 mph    
Max Gust Speed -    
Visibility 9 miles    
Events      
Averages and records for this station are not official NWS values.
T = Trace of Precipitation, MM = Missing Value Source: NWS Daily Summary

Daily Weather History Graph

Daily Weather History Graph

Search for Another Location

Airport:

Trip Planner

Search our weather history database for the weather conditions in past years. The results will help you decide how hot, cold, wet, or windy it might be!

Date:

Astronomy

Nov. 18, 2010 Rise Set
Actual Time 7:11 AM CST 5:03 PM CST
Civil Twilight 6:41 AM CST 5:32 PM CST
Nautical Twilight 6:08 AM CST 6:05 PM CST
Astronomical Twilight 5:36 AM CST 6:37 PM CST
Moon 3:03 PM CST (11/18) 4:09 AM CST (11/18)
Length of Visible Light 10h 50m
Length of Day
9h 52m
Waxing Gibbous, 91% of the Moon is Illuminated
Nov 18
Waxing Gibbous
Nov 21
Full
Nov 28
Last Quarter
Dec 5
New
Dec 13
First Quarter

Hourly Weather History & Observations

Time (CST) Temp. Windchill Dew Point Humidity Pressure Visibility Wind Dir Wind Speed Gust Speed Precip Events Conditions
12:53 AM 34.0 °F 29.8 °F 32.0 °F 92% 30.38 in 7.0 mi WNW 4.6 mph - N/A   Overcast
1:53 AM 34.0 °F - 32.0 °F 92% 30.37 in 7.0 mi Calm Calm - N/A   Overcast
2:53 AM 34.0 °F 31.0 °F 32.0 °F 92% 30.38 in 7.0 mi NW 3.5 mph - N/A   Overcast
3:53 AM 35.1 °F - 32.0 °F 89% 30.39 in 7.0 mi Calm Calm - N/A   Overcast
4:53 AM 35.1 °F - 33.1 °F 92% 30.38 in 7.0 mi Calm Calm - N/A   Overcast
5:53 AM 35.1 °F 32.2 °F 30.9 °F 85% 30.40 in 10.0 mi North 3.5 mph - N/A   Overcast
6:53 AM 34.0 °F - 30.0 °F 85% 30.40 in 10.0 mi Calm Calm - N/A   Overcast
7:53 AM 32.0 °F - 28.9 °F 88% 30.42 in 10.0 mi Calm Calm - N/A   Partly Cloudy
8:53 AM 35.1 °F - 30.9 °F 85% 30.43 in 10.0 mi Calm Calm - N/A   Clear
9:53 AM 37.0 °F 33.3 °F 32.0 °F 82% 30.42 in 10.0 mi ESE 4.6 mph - N/A   Clear
10:53 AM 39.0 °F 34.0 °F 32.0 °F 76% 30.40 in 10.0 mi SSE 6.9 mph - N/A   Partly Cloudy
11:53 AM 41.0 °F 37.1 °F 32.0 °F 70% 30.38 in 10.0 mi South 5.8 mph - N/A   Mostly Cloudy
12:53 PM 41.0 °F 34.7 °F 32.0 °F 70% 30.33 in 10.0 mi South 10.4 mph - N/A   Mostly Cloudy
1:53 PM 42.8 °F 37.5 °F 33.8 °F 70% 30.29 in 10.0 mi SSW 9.2 mph - N/A   Mostly Cloudy
2:03 PM 44.6 °F 40.2 °F 33.8 °F 66% 30.28 in 10.0 mi South 8.1 mph - N/A   Scattered Clouds
2:53 PM 44.1 °F 39.0 °F 32.0 °F 63% 30.28 in 10.0 mi SSW 9.2 mph - N/A   Clear
3:53 PM 44.1 °F 38.6 °F 32.0 °F 63% 30.25 in 10.0 mi South 10.4 mph - N/A   Clear
4:53 PM 42.1 °F 36.1 °F 32.0 °F 67% 30.22 in 10.0 mi South 10.4 mph - N/A   Clear
5:53 PM 37.9 °F 32.1 °F 30.9 °F 76% 30.21 in 10.0 mi South 8.1 mph - N/A   Clear
6:53 PM 37.0 °F 29.3 °F 30.9 °F 79% 30.19 in 9.0 mi SSE 11.5 mph - N/A   Clear
7:53 PM 36.0 °F 27.5 °F 30.9 °F 82% 30.16 in 10.0 mi SSE 12.7 mph - N/A   Clear
8:53 PM 37.0 °F 28.5 °F 30.9 °F 79% 30.15 in 10.0 mi South 13.8 mph - N/A   Clear
9:53 PM 35.1 °F 26.4 °F 30.9 °F 85% 30.14 in 10.0 mi South 12.7 mph - N/A   Clear
10:53 PM 35.1 °F 26.4 °F 30.9 °F 85% 30.12 in 10.0 mi South 12.7 mph - N/A   Clear
11:53 PM 35.1 °F 25.9 °F 30.9 °F 85% 30.10 in 10.0 mi South 13.8 mph - N/A   Clear